AZU2748 SBRF-SBGR

Flight info

Callsign AZU2748
Flight time N/A
Altitude 38000
Route UDOSA UZ21 VUNOX
Aircraft A20N/M-SDE2E3FGHIRWXY/LB1

Departure

Time 2026-05-04 00:05
Airport Recife/Guararapes - Gilberto Freyre International Airport (SBRF)

Arrival

Time N/A
Airport São Paulo/Guarulhos–Governor André Franco Montoro International Airport (SBGR)
Time Latitude Longitude Altitude Speed Heading
2026-05-03 23:47 -8.13141 -34.91917 39 ft 0 kts 72°
2026-05-03 23:56 -8.13141 -34.91919 39 ft 2 kts 72°
2026-05-03 23:56 -8.13146 -34.91935 39 ft 2 kts 72°
2026-05-03 23:57 -8.13152 -34.91952 39 ft 2 kts 72°
2026-05-03 23:57 -8.13157 -34.91968 39 ft 2 kts 63°
2026-05-03 23:57 -8.13168 -34.91980 39 ft 2 kts 34°
2026-05-03 23:57 -8.13182 -34.91988 39 ft 2 kts 346°
2026-05-03 23:58 -8.13183 -34.91987 39 ft 0 kts 346°
2026-05-03 23:58 -8.13179 -34.91988 39 ft 2 kts 346°
2026-05-03 23:59 -8.13146 -34.91999 39 ft 8 kts 342°
2026-05-03 23:59 -8.13077 -34.92021 39 ft 11 kts 342°
2026-05-03 23:59 -8.13009 -34.92044 40 ft 10 kts 342°
2026-05-03 23:59 -8.12930 -34.92068 40 ft 14 kts 342°
2026-05-04 00:00 -8.12841 -34.92099 40 ft 13 kts 342°
2026-05-04 00:00 -8.12759 -34.92126 40 ft 12 kts 342°
2026-05-04 00:00 -8.12672 -34.92154 37 ft 14 kts 342°
2026-05-04 00:00 -8.12572 -34.92186 40 ft 15 kts 341°
2026-05-04 00:01 -8.12478 -34.92219 39 ft 13 kts 341°
2026-05-04 00:01 -8.12394 -34.92245 40 ft 12 kts 343°
2026-05-04 00:01 -8.12322 -34.92269 38 ft 10 kts 341°
2026-05-04 00:01 -8.12237 -34.92296 38 ft 15 kts 343°
2026-05-04 00:02 -8.12125 -34.92335 40 ft 18 kts 342°
2026-05-04 00:02 -8.12012 -34.92372 40 ft 16 kts 341°
2026-05-04 00:02 -8.11913 -34.92405 40 ft 14 kts 342°
2026-05-04 00:02 -8.11816 -34.92436 40 ft 16 kts 341°
2026-05-04 00:03 -8.11714 -34.92471 39 ft 15 kts 341°
2026-05-04 00:03 -8.11625 -34.92503 39 ft 13 kts 334°
2026-05-04 00:03 -8.11560 -34.92553 41 ft 11 kts 319°
2026-05-04 00:03 -8.11492 -34.92609 41 ft 13 kts 319°
2026-05-04 00:04 -8.11488 -34.92680 39 ft 12 kts 213°
2026-05-04 00:04 -8.11658 -34.92642 39 ft 53 kts 162°
2026-05-04 00:04 -8.12204 -34.92460 38 ft 109 kts 162°
2026-05-04 00:04 -8.13069 -34.92173 43 ft 150 kts 162°
2026-05-04 00:05 -8.14073 -34.91833 516 ft 153 kts 162°
2026-05-04 00:05 -8.15117 -34.91486 844 ft 167 kts 163°
2026-05-04 00:05 -8.16292 -34.91099 1004 ft 189 kts 162°
2026-05-04 00:05 -8.17616 -34.90661 1164 ft 213 kts 161°
2026-05-04 00:06 -8.19081 -34.90176 1467 ft 233 kts 162°
2026-05-04 00:06 -8.20709 -34.89992 2034 ft 241 kts 187°
2026-05-04 00:06 -8.22269 -34.90630 2687 ft 249 kts 216°
2026-05-04 00:06 -8.23409 -34.91969 3335 ft 255 kts 232°
2026-05-04 00:07 -8.24413 -34.93460 3960 ft 258 kts 233°
2026-05-04 00:07 -8.25418 -34.94972 4617 ft 261 kts 233°
2026-05-04 00:07 -8.26434 -34.96500 5228 ft 263 kts 233°
2026-05-04 00:07 -8.27463 -34.98041 5849 ft 266 kts 233°
2026-05-04 00:08 -8.28504 -34.99598 6453 ft 269 kts 233°
2026-05-04 00:08 -8.29562 -35.01176 6995 ft 273 kts 234°
2026-05-04 00:08 -8.30631 -35.02772 7551 ft 276 kts 234°
2026-05-04 00:08 -8.31713 -35.04384 8123 ft 279 kts 234°
2026-05-04 00:09 -8.32805 -35.06011 8684 ft 281 kts 235°
2026-05-04 00:09 -8.33909 -35.07655 9235 ft 284 kts 236°
2026-05-04 00:09 -8.35024 -35.09319 9779 ft 288 kts 236°
2026-05-04 00:09 -8.36150 -35.11000 10263 ft 290 kts 236°
2026-05-04 00:10 -8.37274 -35.12674 10731 ft 293 kts 236°
2026-05-04 00:10 -8.38422 -35.14381 11232 ft 295 kts 236°
2026-05-04 00:10 -8.39577 -35.16100 11718 ft 297 kts 236°
2026-05-04 00:10 -8.40726 -35.17812 12185 ft 299 kts 236°
2026-05-04 00:11 -8.41898 -35.19559 12648 ft 301 kts 236°
2026-05-04 00:11 -8.43078 -35.21320 13111 ft 304 kts 236°
2026-05-04 00:11 -8.44268 -35.23096 13565 ft 306 kts 236°
2026-05-04 00:11 -8.45468 -35.24887 13992 ft 309 kts 237°
2026-05-04 00:12 -8.46675 -35.26689 14368 ft 311 kts 236°
2026-05-04 00:12 -8.47894 -35.28507 14766 ft 314 kts 236°
2026-05-04 00:12 -8.49121 -35.30339 15149 ft 316 kts 236°
2026-05-04 00:12 -8.50357 -35.32183 15532 ft 318 kts 236°
2026-05-04 00:13 -8.51598 -35.34036 15909 ft 320 kts 235°
2026-05-04 00:13 -8.52850 -35.35905 16290 ft 322 kts 235°
2026-05-04 00:13 -8.54110 -35.37786 16656 ft 324 kts 235°
2026-05-04 00:13 -8.55378 -35.39680 17023 ft 326 kts 235°
2026-05-04 00:14 -8.56653 -35.41586 17393 ft 328 kts 234°
2026-05-04 00:14 -8.57935 -35.43499 17766 ft 330 kts 234°
2026-05-04 00:14 -8.59228 -35.45428 18149 ft 333 kts 234°
2026-05-04 00:14 -8.60529 -35.47372 18496 ft 335 kts 234°
2026-05-04 00:15 -8.61838 -35.49330 18826 ft 337 kts 234°
2026-05-04 00:15 -8.63170 -35.51323 18970 ft 348 kts 234°
2026-05-04 00:15 -8.64544 -35.53380 19082 ft 360 kts 234°
2026-05-04 00:15 -8.65969 -35.55515 19202 ft 373 kts 234°
2026-05-04 00:16 -8.67452 -35.57732 19319 ft 388 kts 234°
2026-05-04 00:16 -8.68975 -35.60006 19466 ft 402 kts 234°
2026-05-04 00:16 -8.70575 -35.62399 19809 ft 409 kts 234°
2026-05-04 00:16 -8.71636 -35.63985 20097 ft 412 kts 234°
2026-05-04 00:17 -8.73772 -35.67184 20672 ft 417 kts 234°
2026-05-04 00:17 -8.75401 -35.69625 21114 ft 420 kts 234°
2026-05-04 00:17 -8.76507 -35.71282 21423 ft 423 kts 234°
2026-05-04 00:17 -8.78159 -35.73758 21862 ft 426 kts 234°
2026-05-04 00:18 -8.80369 -35.77065 22444 ft 431 kts 234°
2026-05-04 00:18 -8.81509 -35.78767 22733 ft 433 kts 234°
2026-05-04 00:18 -8.83757 -35.82128 23283 ft 438 kts 235°
2026-05-04 00:18 -8.84910 -35.83853 23555 ft 440 kts 235°
2026-05-04 00:19 -8.86607 -35.86395 23916 ft 443 kts 235°
2026-05-04 00:19 -8.88333 -35.88988 24299 ft 445 kts 235°
2026-05-04 00:19 -8.90083 -35.91618 24703 ft 446 kts 235°
2026-05-04 00:19 -8.91817 -35.94224 25118 ft 447 kts 235°
2026-05-04 00:20 -8.93530 -35.96801 25511 ft 448 kts 235°
2026-05-04 00:20 -8.95269 -35.99416 25917 ft 448 kts 235°
2026-05-04 00:20 -8.97012 -36.02031 26301 ft 450 kts 235°
2026-05-04 00:20 -8.98763 -36.04656 26688 ft 450 kts 235°
2026-05-04 00:21 -9.00518 -36.07288 27071 ft 452 kts 235°
2026-05-04 00:21 -9.02278 -36.09927 27446 ft 453 kts 235°
2026-05-04 00:21 -9.04213 -36.12442 27811 ft 453 kts 226°
2026-05-04 00:21 -9.06522 -36.14580 28168 ft 454 kts 217°
2026-05-04 00:22 -9.09104 -36.16423 28528 ft 455 kts 214°
2026-05-04 00:22 -9.11706 -36.18253 28882 ft 456 kts 214°
2026-05-04 00:22 -9.14314 -36.20094 29211 ft 458 kts 214°
2026-05-04 00:22 -9.16923 -36.21940 29530 ft 459 kts 215°
2026-05-04 00:23 -9.19549 -36.23799 29838 ft 462 kts 215°
2026-05-04 00:23 -9.22187 -36.25668 30110 ft 464 kts 215°
2026-05-04 00:23 -9.24837 -36.27544 30378 ft 465 kts 215°
2026-05-04 00:23 -9.27495 -36.29421 30650 ft 466 kts 215°
2026-05-04 00:24 -9.30149 -36.31293 31000 ft 465 kts 215°
2026-05-04 00:24 -9.32799 -36.33164 31384 ft 463 kts 216°
2026-05-04 00:24 -9.35437 -36.35028 31778 ft 461 kts 216°
2026-05-04 00:24 -9.38065 -36.36889 32168 ft 460 kts 216°
2026-05-04 00:25 -9.40676 -36.38739 32565 ft 458 kts 217°
2026-05-04 00:25 -9.43284 -36.40585 32962 ft 456 kts 217°
2026-05-04 00:25 -9.45882 -36.42425 33363 ft 455 kts 217°
2026-05-04 00:25 -9.48468 -36.44261 33771 ft 453 kts 217°
2026-05-04 00:26 -9.51043 -36.46092 34162 ft 451 kts 218°
2026-05-04 00:26 -9.53605 -36.47911 34514 ft 450 kts 218°
2026-05-04 00:26 -9.56165 -36.49726 34859 ft 448 kts 218°
2026-05-04 00:26 -9.58685 -36.51513 35186 ft 447 kts 218°
2026-05-04 00:27 -9.61232 -36.53319 35497 ft 446 kts 218°
2026-05-04 00:27 -9.63800 -36.55141 35828 ft 445 kts 218°
2026-05-04 00:27 -9.66298 -36.56919 36099 ft 444 kts 218°
2026-05-04 00:27 -9.68825 -36.58719 36387 ft 443 kts 218°
2026-05-04 00:28 -9.71345 -36.60516 36678 ft 442 kts 218°
2026-05-04 00:28 -9.73855 -36.62302 36981 ft 441 kts 218°
2026-05-04 00:28 -9.76360 -36.64082 37311 ft 439 kts 218°
2026-05-04 00:28 -9.78857 -36.65855 37598 ft 437 kts 218°
2026-05-04 00:29 -9.81346 -36.67627 37866 ft 437 kts 218°
2026-05-04 00:29 -9.83826 -36.69397 38027 ft 437 kts 218°
2026-05-04 00:29 -9.88784 -36.72946 38055 ft 435 kts 218°
2026-05-04 00:30 -9.93734 -36.76487 38054 ft 435 kts 218°
2026-05-04 00:30 -9.98687 -36.80020 38055 ft 436 kts 218°
2026-05-04 00:31 -10.03652 -36.83563 38053 ft 437 kts 218°
2026-05-04 00:31 -10.08613 -36.87118 38054 ft 437 kts 218°
2026-05-04 00:32 -10.13587 -36.90675 38059 ft 437 kts 218°
2026-05-04 00:32 -10.18559 -36.94231 38061 ft 437 kts 218°
2026-05-04 00:33 -10.25982 -36.99557 38061 ft 437 kts 219°
2026-05-04 00:34 -10.30947 -37.03121 38068 ft 437 kts 218°
2026-05-04 00:34 -10.35918 -37.06683 38066 ft 437 kts 218°
2026-05-04 00:35 -10.40883 -37.10240 38074 ft 437 kts 218°
2026-05-04 00:35 -10.45849 -37.13807 38072 ft 437 kts 218°
2026-05-04 00:36 -10.50810 -37.17370 38071 ft 437 kts 218°
2026-05-04 00:36 -10.55777 -37.20940 38078 ft 437 kts 218°
2026-05-04 00:37 -10.60736 -37.24503 38085 ft 437 kts 218°
2026-05-04 00:37 -10.65685 -37.28062 38079 ft 437 kts 218°
2026-05-04 00:38 -10.70645 -37.31631 38075 ft 437 kts 218°
2026-05-04 00:38 -10.75599 -37.35196 38077 ft 436 kts 218°
2026-05-04 00:39 -10.80527 -37.38739 38079 ft 436 kts 218°
2026-05-04 00:39 -10.85513 -37.42324 38078 ft 436 kts 218°
2026-05-04 00:40 -10.90434 -37.45864 38082 ft 436 kts 218°
2026-05-04 00:40 -10.95372 -37.49432 38074 ft 435 kts 218°
2026-05-04 00:41 -11.00318 -37.52996 38078 ft 435 kts 218°
2026-05-04 00:41 -11.05258 -37.56556 38074 ft 435 kts 218°
2026-05-04 00:42 -11.10202 -37.60123 38081 ft 435 kts 218°
2026-05-04 00:42 -11.15140 -37.63686 38078 ft 435 kts 218°
2026-05-04 00:43 -11.20082 -37.67253 38079 ft 435 kts 218°
2026-05-04 00:43 -11.25020 -37.70824 38078 ft 435 kts 218°
2026-05-04 00:44 -11.29951 -37.74387 38075 ft 435 kts 218°
2026-05-04 00:44 -11.34889 -37.77954 38083 ft 435 kts 218°
2026-05-04 00:45 -11.39824 -37.81522 38078 ft 435 kts 218°
2026-05-04 00:45 -11.44766 -37.85099 38079 ft 435 kts 218°
2026-05-04 00:46 -11.49699 -37.88675 38079 ft 435 kts 218°
2026-05-04 00:46 -11.54597 -37.92243 38082 ft 435 kts 218°
2026-05-04 00:47 -11.59519 -37.95831 38079 ft 435 kts 218°
2026-05-04 00:47 -11.64447 -37.99423 38080 ft 435 kts 218°
2026-05-04 00:48 -11.69380 -38.03021 38075 ft 436 kts 218°
2026-05-04 00:48 -11.74309 -38.06624 38081 ft 436 kts 218°
2026-05-04 00:49 -11.79250 -38.10229 38083 ft 436 kts 218°
2026-05-04 00:49 -11.84189 -38.13825 38084 ft 436 kts 218°
2026-05-04 00:50 -11.89133 -38.17430 38084 ft 437 kts 218°
2026-05-04 00:50 -11.94073 -38.21046 38079 ft 437 kts 218°
2026-05-04 00:51 -11.99024 -38.24673 38080 ft 438 kts 218°
2026-05-04 00:51 -12.03979 -38.28294 38081 ft 438 kts 218°
2026-05-04 00:52 -12.08907 -38.31902 38085 ft 439 kts 218°
2026-05-04 00:52 -12.13865 -38.35529 38083 ft 439 kts 218°
2026-05-04 00:53 -12.18832 -38.39160 38081 ft 439 kts 218°
2026-05-04 00:53 -12.23797 -38.42795 38084 ft 439 kts 218°
2026-05-04 00:54 -12.28754 -38.46431 38086 ft 439 kts 218°
2026-05-04 00:54 -12.33717 -38.50072 38090 ft 439 kts 218°
2026-05-04 00:55 -12.38674 -38.53712 38088 ft 439 kts 218°
2026-05-04 00:55 -12.43643 -38.57365 38084 ft 440 kts 218°
2026-05-04 00:56 -12.48613 -38.61019 38078 ft 440 kts 218°
2026-05-04 00:56 -12.53598 -38.64676 38085 ft 441 kts 218°
2026-05-04 00:57 -12.58579 -38.68334 38079 ft 441 kts 217°
2026-05-04 00:57 -12.63536 -38.71981 38078 ft 442 kts 217°
2026-05-04 00:58 -12.68530 -38.75661 38074 ft 442 kts 217°
2026-05-04 00:58 -12.73526 -38.79338 38076 ft 443 kts 217°
2026-05-04 00:59 -12.78534 -38.83018 38080 ft 443 kts 217°
2026-05-04 00:59 -12.83532 -38.86706 38086 ft 443 kts 217°
2026-05-04 01:00 -12.88531 -38.90407 38084 ft 443 kts 217°
2026-05-04 01:00 -12.93518 -38.94111 38088 ft 443 kts 217°
2026-05-04 01:01 -12.98514 -38.97813 38089 ft 443 kts 217°
2026-05-04 01:01 -13.03507 -39.01509 38088 ft 443 kts 217°
2026-05-04 01:02 -13.08503 -39.05213 38093 ft 443 kts 217°
2026-05-04 01:02 -13.13493 -39.08914 38097 ft 443 kts 217°
2026-05-04 01:03 -13.18484 -39.12617 38098 ft 442 kts 217°
2026-05-04 01:03 -13.23430 -39.16290 38100 ft 442 kts 217°
2026-05-04 01:04 -13.28408 -39.19995 38101 ft 442 kts 217°
2026-05-04 01:04 -13.33381 -39.23693 38104 ft 442 kts 217°
2026-05-04 01:05 -13.38355 -39.27397 38113 ft 441 kts 217°
2026-05-04 01:05 -13.43325 -39.31097 38117 ft 441 kts 217°
2026-05-04 01:06 -13.48284 -39.34786 38116 ft 440 kts 217°
2026-05-04 01:06 -13.53233 -39.38492 38113 ft 440 kts 217°
2026-05-04 01:07 -13.58170 -39.42199 38118 ft 440 kts 217°
2026-05-04 01:07 -13.63109 -39.45909 38122 ft 439 kts 217°
2026-05-04 01:08 -13.68039 -39.49611 38130 ft 439 kts 217°
2026-05-04 01:08 -13.72973 -39.53310 38128 ft 439 kts 217°
2026-05-04 01:09 -13.77902 -39.57000 38124 ft 438 kts 217°
2026-05-04 01:09 -13.82835 -39.60694 38123 ft 438 kts 217°
2026-05-04 01:10 -13.86956 -39.63798 38128 ft 438 kts 218°
2026-05-04 01:10 -13.91878 -39.67503 38131 ft 438 kts 217°
2026-05-04 01:11 -13.96795 -39.71198 38129 ft 438 kts 218°
2026-05-04 01:11 -14.01709 -39.74906 38129 ft 438 kts 218°
2026-05-04 01:12 -14.06623 -39.78612 38131 ft 438 kts 218°
2026-05-04 01:12 -14.11534 -39.82310 38129 ft 437 kts 218°
2026-05-04 01:13 -14.16418 -39.85984 38134 ft 437 kts 218°
2026-05-04 01:13 -14.21354 -39.89712 38134 ft 437 kts 218°
2026-05-04 01:14 -14.26227 -39.93400 38135 ft 437 kts 218°
2026-05-04 01:14 -14.31129 -39.97108 38136 ft 437 kts 218°
2026-05-04 01:15 -14.36039 -40.00813 38138 ft 437 kts 218°
2026-05-04 01:15 -14.40942 -40.04514 38142 ft 437 kts 218°
2026-05-04 01:16 -14.45849 -40.08218 38147 ft 437 kts 218°
2026-05-04 01:16 -14.50748 -40.11923 38141 ft 437 kts 218°
2026-05-04 01:17 -14.55647 -40.15639 38147 ft 437 kts 218°
2026-05-04 01:17 -14.60544 -40.19355 38146 ft 437 kts 218°
2026-05-04 01:18 -14.65435 -40.23070 38156 ft 437 kts 218°
2026-05-04 01:18 -14.70337 -40.26783 38149 ft 437 kts 218°
2026-05-04 01:19 -14.75234 -40.30494 38152 ft 437 kts 218°
2026-05-04 01:19 -14.80136 -40.34215 38148 ft 437 kts 218°
2026-05-04 01:20 -14.85030 -40.37937 38152 ft 437 kts 218°
2026-05-04 01:20 -14.89925 -40.41663 38157 ft 437 kts 218°
2026-05-04 01:21 -14.94815 -40.45382 38154 ft 437 kts 218°
2026-05-04 01:21 -14.99703 -40.49112 38152 ft 436 kts 218°
2026-05-04 01:22 -15.04594 -40.52837 38156 ft 436 kts 218°
2026-05-04 01:22 -15.09481 -40.56555 38153 ft 436 kts 218°
2026-05-04 01:23 -15.14372 -40.60277 38152 ft 436 kts 218°
2026-05-04 01:23 -15.19248 -40.64003 38153 ft 436 kts 219°
2026-05-04 01:24 -15.24129 -40.67734 38154 ft 436 kts 218°
2026-05-04 01:24 -15.29008 -40.71454 38158 ft 436 kts 219°
2026-05-04 01:25 -15.33852 -40.75161 38153 ft 435 kts 219°
2026-05-04 01:25 -15.38721 -40.78890 38153 ft 435 kts 219°
2026-05-04 01:26 -15.43597 -40.82622 38153 ft 435 kts 219°
2026-05-04 01:26 -15.48474 -40.86354 38157 ft 436 kts 219°
2026-05-04 01:27 -15.53345 -40.90083 38153 ft 435 kts 219°
2026-05-04 01:27 -15.58216 -40.93822 38149 ft 435 kts 219°
2026-05-04 01:28 -15.63079 -40.97560 38149 ft 435 kts 219°
2026-05-04 01:28 -15.67947 -41.01306 38152 ft 435 kts 219°
2026-05-04 01:29 -15.72815 -41.05042 38174 ft 435 kts 219°
2026-05-04 01:29 -15.77690 -41.08777 38164 ft 435 kts 219°
2026-05-04 01:30 -15.82551 -41.12512 38164 ft 435 kts 219°
2026-05-04 01:30 -15.87414 -41.16249 38158 ft 435 kts 219°
2026-05-04 01:31 -15.92268 -41.19995 38159 ft 434 kts 219°
2026-05-04 01:31 -15.97114 -41.23741 38165 ft 434 kts 219°
2026-05-04 01:32 -16.01972 -41.27478 38169 ft 434 kts 219°
2026-05-04 01:32 -16.06819 -41.31209 38164 ft 434 kts 219°
2026-05-04 01:33 -16.11664 -41.34949 38155 ft 433 kts 219°
2026-05-04 01:33 -16.16498 -41.38690 38160 ft 433 kts 219°
2026-05-04 01:34 -16.21337 -41.42433 38163 ft 433 kts 220°
2026-05-04 01:34 -16.26170 -41.46166 38161 ft 433 kts 220°
2026-05-04 01:35 -16.30975 -41.49871 38162 ft 432 kts 220°
2026-05-04 01:35 -16.35795 -41.53608 38159 ft 432 kts 220°
2026-05-04 01:36 -16.40621 -41.57349 38161 ft 432 kts 220°
2026-05-04 01:36 -16.45445 -41.61090 38160 ft 432 kts 220°
2026-05-04 01:37 -16.50261 -41.64823 38157 ft 432 kts 220°
2026-05-04 01:37 -16.55086 -41.68555 38163 ft 432 kts 220°
2026-05-04 01:38 -16.59895 -41.72296 38153 ft 432 kts 220°
2026-05-04 01:38 -16.64705 -41.76043 38171 ft 431 kts 220°
2026-05-04 01:39 -16.69512 -41.79777 38158 ft 431 kts 220°
2026-05-04 01:39 -16.74313 -41.83522 38161 ft 430 kts 220°
2026-05-04 01:40 -16.79106 -41.87259 38155 ft 430 kts 220°
2026-05-04 01:40 -16.83906 -41.90993 38158 ft 430 kts 220°
2026-05-04 01:41 -16.88698 -41.94724 38156 ft 430 kts 220°
2026-05-04 01:41 -16.93495 -41.98459 38155 ft 430 kts 220°
2026-05-04 01:42 -16.98282 -42.02206 38157 ft 430 kts 220°
2026-05-04 01:42 -17.03066 -42.05944 38153 ft 430 kts 220°
2026-05-04 01:43 -17.07824 -42.09659 38165 ft 429 kts 220°
2026-05-04 01:43 -17.12631 -42.13422 38161 ft 429 kts 220°
2026-05-04 01:44 -17.17369 -42.17145 38165 ft 429 kts 220°
2026-05-04 01:44 -17.22137 -42.20881 38153 ft 428 kts 220°
2026-05-04 01:45 -17.26911 -42.24618 38160 ft 428 kts 220°
2026-05-04 01:45 -17.34066 -42.30222 38171 ft 428 kts 220°
2026-05-04 01:46 -17.38831 -42.33965 38171 ft 428 kts 220°
2026-05-04 01:46 -17.43588 -42.37706 38171 ft 428 kts 220°
2026-05-04 01:47 -17.48343 -42.41459 38168 ft 428 kts 220°
2026-05-04 01:47 -17.53097 -42.45208 38174 ft 428 kts 220°
2026-05-04 01:48 -17.57863 -42.48954 38171 ft 428 kts 220°
2026-05-04 01:48 -17.62627 -42.52699 38172 ft 428 kts 220°
2026-05-04 01:49 -17.67389 -42.56457 38166 ft 428 kts 220°
2026-05-04 01:49 -17.72150 -42.60215 38173 ft 428 kts 220°
2026-05-04 01:50 -17.76906 -42.63973 38168 ft 428 kts 220°
2026-05-04 01:50 -17.81668 -42.67736 38168 ft 428 kts 220°
2026-05-04 01:51 -17.86432 -42.71496 38158 ft 429 kts 220°
2026-05-04 01:51 -17.91203 -42.75261 38166 ft 429 kts 221°
2026-05-04 01:52 -17.95959 -42.79037 38168 ft 429 kts 221°
2026-05-04 01:52 -18.00718 -42.82814 38167 ft 428 kts 221°
2026-05-04 01:53 -18.05475 -42.86589 38165 ft 428 kts 221°
2026-05-04 01:53 -18.10194 -42.90335 38162 ft 428 kts 221°
2026-05-04 01:54 -18.14942 -42.94108 38184 ft 428 kts 221°
2026-05-04 01:54 -18.19694 -42.97876 38184 ft 427 kts 221°
2026-05-04 01:55 -18.24435 -43.01647 38171 ft 427 kts 221°
2026-05-04 01:55 -18.29164 -43.05415 38166 ft 427 kts 221°
2026-05-04 01:56 -18.33135 -43.08573 38171 ft 427 kts 221°
2026-05-04 01:56 -18.37832 -43.12316 38170 ft 426 kts 221°
2026-05-04 01:57 -18.42558 -43.16095 38182 ft 426 kts 222°
2026-05-04 01:57 -18.47247 -43.19902 38172 ft 426 kts 222°
2026-05-04 01:58 -18.51934 -43.23722 38176 ft 426 kts 222°
2026-05-04 01:58 -18.56620 -43.27527 38188 ft 425 kts 222°
2026-05-04 01:59 -18.61309 -43.31328 38191 ft 425 kts 222°
2026-05-04 01:59 -18.65995 -43.35111 38177 ft 424 kts 222°
2026-05-04 02:00 -18.71488 -43.39451 38171 ft 424 kts 221°
2026-05-04 02:00 -18.75445 -43.42575 38187 ft 424 kts 222°
2026-05-04 02:01 -18.80151 -43.46317 38186 ft 423 kts 222°
2026-05-04 02:01 -18.84845 -43.50057 38176 ft 422 kts 222°
2026-05-04 02:02 -18.89500 -43.53766 38169 ft 422 kts 222°
2026-05-04 02:02 -18.94244 -43.57424 38189 ft 423 kts 221°
2026-05-04 02:03 -18.99025 -43.61051 38168 ft 423 kts 221°
2026-05-04 02:03 -19.03793 -43.64694 38156 ft 423 kts 221°
2026-05-04 02:04 -19.08544 -43.68356 38157 ft 423 kts 221°
2026-05-04 02:04 -19.13304 -43.72027 38167 ft 423 kts 221°
2026-05-04 02:05 -19.18060 -43.75689 38187 ft 423 kts 221°
2026-05-04 02:05 -19.22814 -43.79348 38168 ft 422 kts 221°
2026-05-04 02:06 -19.27556 -43.82997 38171 ft 422 kts 221°
2026-05-04 02:06 -19.32299 -43.86654 38169 ft 421 kts 221°
2026-05-04 02:07 -19.37033 -43.90315 38193 ft 421 kts 222°
2026-05-04 02:07 -19.41759 -43.93963 38205 ft 420 kts 222°
2026-05-04 02:08 -19.46483 -43.97615 38219 ft 420 kts 222°
2026-05-04 02:08 -19.51199 -44.01262 38226 ft 420 kts 222°
2026-05-04 02:09 -19.55914 -44.04916 38235 ft 419 kts 222°
2026-05-04 02:09 -19.60633 -44.08547 38166 ft 419 kts 221°
2026-05-04 02:10 -19.65326 -44.12139 38167 ft 418 kts 222°
2026-05-04 02:10 -19.70038 -44.15758 38170 ft 418 kts 222°
2026-05-04 02:11 -19.74747 -44.19390 38183 ft 418 kts 222°
2026-05-04 02:11 -19.79441 -44.23025 38179 ft 418 kts 222°
2026-05-04 02:12 -19.84135 -44.26666 38173 ft 418 kts 222°
2026-05-04 02:12 -19.88832 -44.30304 38175 ft 417 kts 222°
2026-05-04 02:13 -19.93526 -44.33933 38192 ft 418 kts 222°
2026-05-04 02:13 -19.98220 -44.37574 38183 ft 418 kts 222°
2026-05-04 02:14 -20.02906 -44.41219 38184 ft 418 kts 222°
2026-05-04 02:14 -20.07601 -44.44864 38178 ft 418 kts 222°
2026-05-04 02:15 -20.12291 -44.48506 38198 ft 418 kts 222°
2026-05-04 02:15 -20.16985 -44.52155 38193 ft 418 kts 222°
2026-05-04 02:16 -20.21672 -44.55799 38193 ft 417 kts 222°
2026-05-04 02:16 -20.26362 -44.59443 38194 ft 417 kts 222°
2026-05-04 02:17 -20.31047 -44.63093 38212 ft 417 kts 222°
2026-05-04 02:17 -20.35720 -44.66745 38206 ft 416 kts 223°
2026-05-04 02:18 -20.40392 -44.70395 38207 ft 416 kts 223°
2026-05-04 02:18 -20.45058 -44.74034 38206 ft 416 kts 222°
2026-05-04 02:19 -20.49699 -44.77654 38204 ft 416 kts 223°
2026-05-04 02:19 -20.54387 -44.81319 38220 ft 415 kts 223°
2026-05-04 02:20 -20.59013 -44.84932 38210 ft 414 kts 223°
2026-05-04 02:20 -20.63686 -44.88587 38210 ft 413 kts 222°
2026-05-04 02:21 -20.68299 -44.92189 38210 ft 413 kts 223°
2026-05-04 02:21 -20.72934 -44.95815 38230 ft 413 kts 223°
2026-05-04 02:22 -20.77566 -44.99444 38224 ft 412 kts 223°
2026-05-04 02:22 -20.82181 -45.03081 38213 ft 412 kts 223°
2026-05-04 02:23 -20.86783 -45.06717 38208 ft 411 kts 223°
2026-05-04 02:23 -20.91393 -45.10347 38207 ft 411 kts 223°
2026-05-04 02:24 -20.95999 -45.13968 38203 ft 411 kts 223°
2026-05-04 02:24 -21.00607 -45.17597 38205 ft 411 kts 223°
2026-05-04 02:25 -21.05211 -45.21220 38212 ft 411 kts 223°
2026-05-04 02:25 -21.09808 -45.24853 38207 ft 410 kts 223°
2026-05-04 02:26 -21.14397 -45.28482 38215 ft 410 kts 223°
2026-05-04 02:26 -21.18988 -45.32115 38206 ft 410 kts 223°
2026-05-04 02:27 -21.23572 -45.35742 38202 ft 410 kts 223°
2026-05-04 02:27 -21.28134 -45.39348 38232 ft 410 kts 223°
2026-05-04 02:28 -21.32713 -45.42975 38230 ft 409 kts 223°
2026-05-04 02:28 -21.37288 -45.46599 38218 ft 408 kts 223°
2026-05-04 02:29 -21.41854 -45.50223 38218 ft 408 kts 223°
2026-05-04 02:29 -21.46367 -45.53801 38202 ft 392 kts 223°
2026-05-04 02:30 -21.50608 -45.57260 38195 ft 373 kts 232°
2026-05-04 02:30 -21.52142 -45.59420 38204 ft 360 kts 247°
2026-05-04 02:30 -21.52997 -45.61907 38205 ft 353 kts 261°
2026-05-04 02:31 -21.53140 -45.64526 38200 ft 352 kts 276°
2026-05-04 02:31 -21.52567 -45.67088 38195 ft 356 kts 290°
2026-05-04 02:31 -21.51297 -45.69399 38189 ft 365 kts 305°
2026-05-04 02:31 -21.49382 -45.71244 38194 ft 379 kts 321°
2026-05-04 02:32 -21.46918 -45.72409 38189 ft 398 kts 338°
2026-05-04 02:32 -21.44100 -45.72651 38181 ft 419 kts 358°
2026-05-04 02:32 -21.41234 -45.71793 38178 ft 441 kts 20°
2026-05-04 02:32 -21.38605 -45.70014 38171 ft 450 kts 27°
2026-05-04 02:33 -21.33516 -45.66041 38185 ft 457 kts 30°
2026-05-04 02:33 -21.29038 -45.61454 38154 ft 474 kts 57°
2026-05-04 02:34 -21.27867 -45.58142 38160 ft 479 kts 80°
2026-05-04 02:34 -21.27805 -45.54591 38161 ft 476 kts 103°
2026-05-04 02:34 -21.28864 -45.51261 38200 ft 471 kts 126°
2026-05-04 02:34 -21.30872 -45.48573 38224 ft 456 kts 148°
2026-05-04 02:35 -21.33513 -45.46884 38191 ft 433 kts 171°
2026-05-04 02:35 -21.36387 -45.46384 38201 ft 408 kts 194°
2026-05-04 02:35 -21.39039 -45.47073 38203 ft 382 kts 217°
2026-05-04 02:35 -21.41209 -45.48629 38205 ft 373 kts 226°
2026-05-04 02:36 -21.45059 -45.52325 38205 ft 372 kts 229°
2026-05-04 02:36 -21.49009 -45.55951 38206 ft 375 kts 225°
2026-05-04 02:37 -21.53234 -45.59367 38200 ft 388 kts 223°
2026-05-04 02:37 -21.57491 -45.62643 38208 ft 401 kts 223°
2026-05-04 02:38 -21.62095 -45.66198 38209 ft 404 kts 223°
2026-05-04 02:38 -21.66637 -45.69749 38200 ft 404 kts 223°
2026-05-04 02:39 -21.71203 -45.73349 37869 ft 407 kts 223°
2026-05-04 02:39 -21.73468 -45.75141 36787 ft 417 kts 223°
2026-05-04 02:39 -21.75822 -45.77005 35868 ft 422 kts 223°
2026-05-04 02:40 -21.78190 -45.78877 35078 ft 423 kts 223°
2026-05-04 02:40 -21.80567 -45.80750 34300 ft 425 kts 222°
2026-05-04 02:40 -21.82957 -45.82631 33617 ft 424 kts 222°
2026-05-04 02:40 -21.85318 -45.84487 33081 ft 418 kts 222°
2026-05-04 02:41 -21.87643 -45.86313 32529 ft 413 kts 222°
2026-05-04 02:41 -21.89922 -45.88107 31986 ft 408 kts 223°
2026-05-04 02:41 -21.92197 -45.89903 31463 ft 403 kts 223°
2026-05-04 02:41 -21.94448 -45.91683 30932 ft 399 kts 223°
2026-05-04 02:42 -21.96624 -45.93401 30424 ft 395 kts 223°
2026-05-04 02:42 -21.98833 -45.95144 29857 ft 391 kts 223°
2026-05-04 02:42 -22.00966 -45.96830 29360 ft 385 kts 223°